WetterOnline ( http://www.wetteronline.de )

Wetter aktuell Traunstein

Aktuelles Wetter: Chieming (553m)

6-stündlich | Neueste Meldungen
Ortszeit Temperatur Wetter
So, 19.08. 2:00 17.0° C leicht bewölkt
Sa, 18.08. 20:00 24.6° C leicht bewölkt
Sa, 18.08. 14:00 24.4° C leicht bewölkt
Sa, 18.08. 8:00 17.6° C wolkig
Sa, 18.08. 2:00 19.2° C wolkig
Fr, 17.08. 20:00 25.1° C leicht bewölkt
Fr, 17.08. 14:00 25.3° C wolkenlos
Fr, 17.08. 8:00 18.0° C wolkenlos
Ortszeit Temperatur Wetter
So, 19.08. 2:00 17.0° C leicht bewölkt
So, 19.08. 1:40 17.0° C bedeckt
So, 19.08. 1:30 17.4° C bedeckt
So, 19.08. 1:20 17.4° C bedeckt
So, 19.08. 1:10 17.3° C bedeckt
So, 19.08. 1:00 17.8° C bedeckt
So, 19.08. 0:50 17.8° C bedeckt
So, 19.08. 0:30 17.5° C bedeckt
So, 19.08. 0:00 18.8° C leicht bewölkt
Sa, 18.08. 23:30 18.9° C bewölkt
Sa, 18.08. 23:00 19.4° C leicht bewölkt
Sa, 18.08. 22:30 20.3° C leicht bewölkt
Ortszeit Relative Feuchte Sichtweite
So, 19.08. 2:00 86% 12 km
Sa, 18.08. 20:00 63% 20 km
Sa, 18.08. 14:00 57% 17 km
Sa, 18.08. 8:00 78% 23 km
Sa, 18.08. 2:00 75% 14 km
Fr, 17.08. 20:00 43% 27 km
Fr, 17.08. 14:00 47% 17 km
Fr, 17.08. 8:00 75% 21 km
Ortszeit Relative Feuchte Sichtweite
So, 19.08. 2:00 86% 12 km
So, 19.08. 1:40 87% -
So, 19.08. 1:30 86% 17 km
So, 19.08. 1:20 86% -
So, 19.08. 1:10 86% -
So, 19.08. 1:00 84% 13 km
So, 19.08. 0:50 84% -
So, 19.08. 0:30 86% 10 km
So, 19.08. 0:00 81% 13 km
Sa, 18.08. 23:30 81% 17 km
Sa, 18.08. 23:00 80% 12 km
Sa, 18.08. 22:30 75% 17 km
Ortszeit Niederschlagsmenge Niederschlagsart
So, 19.08. 2:00 0.0 l/m2 in 6 Std. -
Sa, 18.08. 20:00 0.0 l/m2 in 12 Std. -
Sa, 18.08. 14:00 0.0 l/m2 in 6 Std. -
Sa, 18.08. 8:00 0.0 l/m2 in 12 Std. -
Sa, 18.08. 2:00 0.0 l/m2 in 6 Std. -
Fr, 17.08. 20:00 0.0 l/m2 in 12 Std. -
Fr, 17.08. 14:00 0.0 l/m2 in 6 Std. -
Fr, 17.08. 8:00 0.0 l/m2 in 12 Std. -
Ortszeit Niederschlagsmenge Niederschlagsart
So, 19.08. 2:00 0.0 l/m2 in 1 Std. -
So, 19.08. 1:40 keine Meldung -
So, 19.08. 1:30 0.0 l/m2 in 1 Std. -
So, 19.08. 1:20 keine Meldung -
So, 19.08. 1:10 keine Meldung -
So, 19.08. 1:00 0.0 l/m2 in 1 Std. -
So, 19.08. 0:50 keine Meldung -
So, 19.08. 0:30 0.0 l/m2 in 1 Std. -
So, 19.08. 0:00 0.0 l/m2 in 1 Std. -
Sa, 18.08. 23:30 0.0 l/m2 in 1 Std. -
Sa, 18.08. 23:00 0.0 l/m2 in 1 Std. -
Sa, 18.08. 22:30 0.0 l/m2 in 1 Std. -
Ortszeit Stärke Spitze Richtung
km/h Bft. km/h Grad Sektor
So, 19.08. 2:00 2 1 13 100° O
Sa, 18.08. 20:00 6 1 19 250° W
Sa, 18.08. 14:00 9 2 22 240° SW
Sa, 18.08. 8:00 11 2 29 200° S
Sa, 18.08. 2:00 11 2 22 230° SW
Fr, 17.08. 20:00 4 1 14 60° NO
Fr, 17.08. 14:00 7 2 11 250° W
Fr, 17.08. 8:00 4 1 14 230° SW
Ortszeit Stärke Spitze Richtung
km/h Bft. km/h Grad Sektor
So, 19.08. 2:00 2 1 6 100° O
So, 19.08. 1:40 6 1 - 80° O
So, 19.08. 1:30 6 1 6 80° O
So, 19.08. 1:20 6 1 - 80° O
So, 19.08. 1:10 6 1 - 70° O
So, 19.08. 1:00 2 1 9 360° N
So, 19.08. 0:50 2 1 - 360° N
So, 19.08. 0:30 4 1 7 80° O
So, 19.08. 0:00 7 2 11 170° S
Sa, 18.08. 23:30 7 2 11 180° S
Sa, 18.08. 23:00 4 1 14 120° SO
Sa, 18.08. 22:30 9 2 13 170° S
Ortszeit Untergrenze Bedeckung Gattung
total tief tief mittel hoch
So, 19.08. 2:00 2700 m 3/8 1/8 - - -
Sa, 18.08. 20:00 2400 m 3/8 1/8 - - -
Sa, 18.08. 14:00 10500 m 8/8 0/8 - - -
Sa, 18.08. 8:00 2100 m 7/8 5/8 - - -
Sa, 18.08. 2:00 2100 m 8/8 1/8 - - -
Fr, 17.08. 20:00 9000 m 3/8 0/8 - - -
Fr, 17.08. 14:00 - 0/8 0/8 - - -
Fr, 17.08. 8:00 - 0/8 0/8 - - -
Ortszeit Bedeckungsgrad in Achtel und Wolkenuntergrenze
So, 19.08. 2:00 1(2700m) 3(3300m)
So, 19.08. 1:40 9 9 9
So, 19.08. 1:30 9 9 9
So, 19.08. 1:20 9 9 9
So, 19.08. 1:10 9 9 9
So, 19.08. 1:00 9 9 9
So, 19.08. 0:50 9 9 9
So, 19.08. 0:30 1(3000m) 3(3600m) 9
So, 19.08. 0:00 2(3900m)
Sa, 18.08. 23:30 7(3900m)
Sa, 18.08. 23:00 2(3300m) 5(3900m)
Sa, 18.08. 22:30 1(1800m) 3(2400m) 5(4200m)
Ortszeit Luftdruck NN (hPa) Tendenz (hPa in 3 Std.)
So, 19.08. 2:00 1021 + 0,1
Sa, 18.08. 20:00 1018 + 0,2
Sa, 18.08. 14:00 1019 - 0,4
Sa, 18.08. 8:00 1020 + 1,1
Sa, 18.08. 2:00 1018 + 1,5
Fr, 17.08. 20:00 1014 + 0,1
Fr, 17.08. 14:00 1014 0,0
Fr, 17.08. 8:00 1015 + 0,8
Ortszeit Luftdruck NN (hPa) Tendenz (hPa in 3 Std.)
So, 19.08. 2:00 1021 + 0,1
So, 19.08. 1:40 1021 keine Meldung
So, 19.08. 1:30 1021 + 0,2
So, 19.08. 1:20 1021 keine Meldung
So, 19.08. 1:10 1021 keine Meldung
So, 19.08. 1:00 1021 + 0,3
So, 19.08. 0:50 1021 keine Meldung
So, 19.08. 0:30 1021 + 0,5
So, 19.08. 0:00 1021 + 0,9
Sa, 18.08. 23:30 1021 + 1,2
Sa, 18.08. 23:00 1020 + 1,3
Sa, 18.08. 22:30 1020 + 1,6
Ortszeit Schneehöhe (cm)
So, 19.08. 2:00 -
Sa, 18.08. 20:00 -
Sa, 18.08. 14:00 -
Sa, 18.08. 8:00 -
Sa, 18.08. 2:00 -
Fr, 17.08. 20:00 -
Fr, 17.08. 14:00 -
Fr, 17.08. 8:00 -
Ortszeit Schneehöhe (cm)
So, 19.08. 2:00 -
So, 19.08. 1:40 -
So, 19.08. 1:30 -
So, 19.08. 1:20 -
So, 19.08. 1:10 -
So, 19.08. 1:00 -
So, 19.08. 0:50 -
So, 19.08. 0:30 -
So, 19.08. 0:00 -
Sa, 18.08. 23:30 -
Sa, 18.08. 23:00 -
Sa, 18.08. 22:30 -
Link zu dieser Seite / Seite empfehlen

Das Wetter in ...